Location: Mountain Grove
(34.0887°N, 86.6172°W)
Time: 00:46:13
(UTC+00:00)

Cosmos 1727 Rocket - Pass Details

Date: 14 July 2020
Orbit: 962 x 996 km, 82.9° (Epoch: 12 August)

Event Time Altitude Azimuth Distance (km) Brightness Sun altitude
Rises 04:54:16 0° 354° (N) 3,684 8.1 -32.6°
Reaches altitude 10° 04:56:47 10° 355° (N) 2,738 7.2 -32.8°
Enters shadow 05:02:06 66° 3° (N) 1,070 4.2 -33.0°
